DLH742 EDDM-RJBB

Flight info

Callsign DLH742
Flight time N/A
Altitude 23000
Route KIRDI4N KIRDI DCT BUWOQ DCT OBFEZ DCT STEIN DCT TEGRI DCT DINRO/N0487F370 DCT UDROS UM859 KARDE UN644 ROLIN DCT TAGAR DCT BT DCT BARAD M747 SUBUT T916 LEYLA N161 GASBI/K0902F370 N161 ABDUN/K0895F390 N161 SARIN/K0896S1190 A368 FKG W188 LIKMI W270 BUVEM/K0893S1250 W270 DKO W69 HUR B339 LADIX W34 VAPGU DCT MUDOT DCT UNSEK A326 DONVO G597 AGAVO/N0489F410 Y644 EGOBA Y697 LANAT Y597 MIHOU Y361 SAEKI Y36 ATMUG
Aircraft A359/H-SDE2E3GHIJ3J4J5LM1ORWXY/LB1D1

Departure

Time N/A
Airport Munich Airport (EDDM)

Arrival

Time 2026-05-05 09:15
Airport Kansai International Airport (RJBB)
Time Latitude Longitude Altitude Speed Heading
2026-05-05 08:20 37.57126 129.02488 40966 ft 520 kts 125°
2026-05-05 08:20 37.55228 129.06379 40968 ft 520 kts 125°
2026-05-05 08:21 37.51458 129.14163 40968 ft 520 kts 125°
2026-05-05 08:21 37.47696 129.21949 40986 ft 521 kts 125°
2026-05-05 08:22 37.43929 129.29734 40967 ft 521 kts 125°
2026-05-05 08:22 37.40188 129.37462 40981 ft 521 kts 126°
2026-05-05 08:23 37.36404 129.45237 40981 ft 521 kts 126°
2026-05-05 08:23 37.32612 129.53012 40991 ft 522 kts 126°
2026-05-05 08:24 37.28816 129.60782 40996 ft 522 kts 126°
2026-05-05 08:24 37.25014 129.68548 41008 ft 523 kts 126°
2026-05-05 08:25 37.21203 129.76312 41009 ft 523 kts 126°
2026-05-05 08:25 37.17385 129.84076 41000 ft 523 kts 126°
2026-05-05 08:26 37.13567 129.91833 41018 ft 523 kts 126°
2026-05-05 08:26 37.09729 129.99591 41022 ft 523 kts 126°
2026-05-05 08:27 37.05888 130.07338 41026 ft 524 kts 127°
2026-05-05 08:27 37.02040 130.15084 41023 ft 524 kts 127°
2026-05-05 08:28 36.98188 130.22824 41040 ft 524 kts 127°
2026-05-05 08:28 36.94325 130.30568 41044 ft 525 kts 127°
2026-05-05 08:29 36.90453 130.38311 41045 ft 525 kts 127°
2026-05-05 08:30 36.84640 130.49904 41057 ft 525 kts 127°
2026-05-05 08:30 36.80777 130.57584 41059 ft 526 kts 127°
2026-05-05 08:31 36.76860 130.65356 41068 ft 526 kts 128°
2026-05-05 08:31 36.72991 130.73028 41071 ft 526 kts 128°
2026-05-05 08:32 36.69089 130.80733 41067 ft 526 kts 128°
2026-05-05 08:32 36.65180 130.88430 41073 ft 526 kts 128°
2026-05-05 08:33 36.61266 130.96124 41076 ft 526 kts 128°
2026-05-05 08:33 36.57347 131.03812 41084 ft 526 kts 128°
2026-05-05 08:34 36.53418 131.11502 41085 ft 526 kts 128°
2026-05-05 08:34 36.49487 131.19180 41083 ft 527 kts 128°
2026-05-05 08:35 36.45544 131.26862 41091 ft 527 kts 128°
2026-05-05 08:35 36.41594 131.34543 41093 ft 527 kts 128°
2026-05-05 08:36 36.37646 131.42202 41108 ft 528 kts 129°
2026-05-05 08:36 36.33741 131.49935 41094 ft 530 kts 127°
2026-05-05 08:37 36.29904 131.57734 41097 ft 530 kts 127°
2026-05-05 08:37 36.26081 131.65479 41107 ft 530 kts 128°
2026-05-05 08:38 36.22212 131.73260 41108 ft 531 kts 128°
2026-05-05 08:38 36.18329 131.81036 41108 ft 531 kts 128°
2026-05-05 08:39 36.14437 131.88810 41115 ft 532 kts 128°
2026-05-05 08:39 36.10537 131.96584 41119 ft 532 kts 128°
2026-05-05 08:40 36.06633 132.04357 41115 ft 532 kts 129°
2026-05-05 08:40 36.02715 132.12119 41117 ft 533 kts 129°
2026-05-05 08:41 35.98791 132.19877 41111 ft 533 kts 129°
2026-05-05 08:41 35.94858 132.27638 41130 ft 534 kts 129°
2026-05-05 08:42 35.90914 132.35406 41121 ft 535 kts 129°
2026-05-05 08:42 35.86960 132.43176 41135 ft 535 kts 129°
2026-05-05 08:43 35.82993 132.50955 41137 ft 536 kts 129°
2026-05-05 08:43 35.79017 132.58734 41138 ft 537 kts 129°
2026-05-05 08:44 35.75032 132.66514 41140 ft 537 kts 130°
2026-05-05 08:44 35.71055 132.74313 41135 ft 538 kts 129°
2026-05-05 08:45 35.67084 132.82125 41126 ft 538 kts 130°
2026-05-05 08:45 35.63104 132.89917 41122 ft 538 kts 130°
2026-05-05 08:46 35.59114 132.97704 41118 ft 538 kts 130°
2026-05-05 08:46 35.55120 133.05483 41114 ft 539 kts 130°
2026-05-05 08:47 35.51527 133.13645 41102 ft 548 kts 123°
2026-05-05 08:47 35.48297 133.22136 41101 ft 549 kts 121°
2026-05-05 08:48 35.45126 133.30662 41101 ft 550 kts 122°
2026-05-05 08:48 35.41959 133.39143 41111 ft 551 kts 122°
2026-05-05 08:49 35.38752 133.47669 41118 ft 551 kts 122°
2026-05-05 08:49 35.35530 133.56192 41135 ft 551 kts 122°
2026-05-05 08:50 35.32301 133.64714 41135 ft 552 kts 122°
2026-05-05 08:50 35.29062 133.73236 41144 ft 552 kts 122°
2026-05-05 08:51 35.25815 133.81759 41150 ft 553 kts 122°
2026-05-05 08:51 35.22526 133.90253 41138 ft 549 kts 126°
2026-05-05 08:51 35.20548 133.94160 40668 ft 533 kts 136°
2026-05-05 08:52 35.18144 133.97529 39875 ft 520 kts 147°
2026-05-05 08:52 35.15364 134.00239 39113 ft 504 kts 159°
2026-05-05 08:52 35.12331 134.02246 38320 ft 487 kts 169°
2026-05-05 08:52 35.09181 134.03558 37465 ft 470 kts 179°
2026-05-05 08:53 35.06010 134.04365 36654 ft 464 kts 182°
2026-05-05 08:53 35.02839 134.05030 35888 ft 460 kts 183°
2026-05-05 08:53 34.99682 134.05633 35126 ft 459 kts 184°
2026-05-05 08:53 34.96530 134.06220 34334 ft 458 kts 184°
2026-05-05 08:54 34.93390 134.06805 33554 ft 455 kts 185°
2026-05-05 08:54 34.90256 134.07325 32485 ft 457 kts 185°
2026-05-05 08:54 34.87069 134.07797 31144 ft 466 kts 184°
2026-05-05 08:54 34.83807 134.08265 29853 ft 477 kts 183°
2026-05-05 08:55 34.80510 134.08758 28995 ft 476 kts 182°
2026-05-05 08:55 34.77242 134.09272 28282 ft 471 kts 181°
2026-05-05 08:55 34.74009 134.09795 27582 ft 466 kts 181°
2026-05-05 08:55 34.70813 134.10314 26927 ft 461 kts 180°
2026-05-05 08:56 34.68714 134.10654 26471 ft 459 kts 180°
2026-05-05 08:56 34.65561 134.11160 25790 ft 455 kts 179°
2026-05-05 08:56 34.62431 134.11659 25108 ft 452 kts 179°
2026-05-05 08:56 34.59325 134.12189 24439 ft 451 kts 176°
2026-05-05 08:57 34.56299 134.13266 23747 ft 459 kts 161°
2026-05-05 08:57 34.53566 134.15313 22977 ft 465 kts 145°
2026-05-05 08:57 34.51164 134.17926 22253 ft 463 kts 140°
2026-05-05 08:57 34.48847 134.20610 21550 ft 458 kts 140°
2026-05-05 08:58 34.46552 134.23268 20848 ft 454 kts 140°
2026-05-05 08:58 34.44274 134.25893 20147 ft 450 kts 140°
2026-05-05 08:58 34.42014 134.28484 19448 ft 446 kts 140°
2026-05-05 08:58 34.39786 134.31076 18736 ft 443 kts 137°
2026-05-05 08:59 34.37952 134.34061 17951 ft 445 kts 120°
2026-05-05 08:59 34.36920 134.37570 17222 ft 444 kts 102°
2026-05-05 08:59 34.36803 134.41278 16565 ft 440 kts 84°
2026-05-05 08:59 34.37609 134.44812 15941 ft 435 kts 66°
2026-05-05 09:00 34.39248 134.47841 15306 ft 430 kts 48°
2026-05-05 09:00 34.41550 134.50098 14699 ft 423 kts 32°
2026-05-05 09:00 34.43853 134.52263 14012 ft 418 kts 47°
2026-05-05 09:00 34.45702 134.54953 13149 ft 415 kts 54°
2026-05-05 09:01 34.47388 134.57778 12410 ft 411 kts 56°
2026-05-05 09:01 34.48998 134.60610 11714 ft 405 kts 57°
2026-05-05 09:01 34.50547 134.63402 11336 ft 391 kts 58°
2026-05-05 09:01 34.52017 134.66082 11223 ft 371 kts 58°
2026-05-05 09:02 34.53403 134.68627 11128 ft 353 kts 58°
2026-05-05 09:02 34.54719 134.71054 11012 ft 336 kts 58°
2026-05-05 09:02 34.55969 134.73369 10877 ft 321 kts 59°
2026-05-05 09:02 34.57166 134.75589 10733 ft 308 kts 59°
2026-05-05 09:03 34.58312 134.77720 10590 ft 295 kts 59°
2026-05-05 09:03 34.59427 134.79795 10222 ft 293 kts 59°
2026-05-05 09:03 34.60522 134.81863 9843 ft 290 kts 61°
2026-05-05 09:03 34.61286 134.84126 9490 ft 290 kts 81°
2026-05-05 09:04 34.61413 134.86553 9216 ft 287 kts 93°
2026-05-05 09:04 34.61361 134.88973 8949 ft 286 kts 94°
2026-05-05 09:04 34.61298 134.91383 8679 ft 285 kts 94°
2026-05-05 09:04 34.61239 134.93787 8395 ft 284 kts 94°
2026-05-05 09:05 34.61185 134.96171 8100 ft 283 kts 94°
2026-05-05 09:05 34.61133 134.98552 7801 ft 281 kts 94°
2026-05-05 09:05 34.61083 135.00923 7497 ft 280 kts 93°
2026-05-05 09:05 34.61034 135.03278 7222 ft 279 kts 94°
2026-05-05 09:06 34.60983 135.05627 6936 ft 277 kts 94°
2026-05-05 09:06 34.60933 135.07958 6641 ft 275 kts 94°
2026-05-05 09:06 34.60896 135.09673 6418 ft 274 kts 94°
2026-05-05 09:06 34.60845 135.11982 6103 ft 273 kts 94°
2026-05-05 09:07 34.60795 135.14274 5831 ft 271 kts 94°
2026-05-05 09:07 34.60744 135.16548 5549 ft 268 kts 93°
2026-05-05 09:07 34.60696 135.18764 5397 ft 256 kts 93°
2026-05-05 09:07 34.60650 135.20870 5284 ft 243 kts 93°
2026-05-05 09:08 34.60609 135.22810 5169 ft 232 kts 93°
2026-05-05 09:08 34.60574 135.24718 5060 ft 221 kts 93°
2026-05-05 09:08 34.60540 135.26533 4946 ft 210 kts 93°
2026-05-05 09:08 34.60507 135.28256 4857 ft 198 kts 93°
2026-05-05 09:09 34.60475 135.29888 4750 ft 191 kts 93°
2026-05-05 09:09 34.60442 135.31497 4578 ft 191 kts 93°
2026-05-05 09:09 34.60408 135.33113 4388 ft 192 kts 93°
2026-05-05 09:09 34.60373 135.34735 4196 ft 190 kts 94°
2026-05-05 09:10 34.60082 135.36284 4028 ft 189 kts 117°
2026-05-05 09:10 34.59182 135.37421 3810 ft 190 kts 150°
2026-05-05 09:10 34.57909 135.37773 3535 ft 189 kts 178°
2026-05-05 09:10 34.56598 135.37714 3256 ft 188 kts 186°
2026-05-05 09:11 34.55339 135.37297 3015 ft 187 kts 199°
2026-05-05 09:11 34.54128 135.36728 2755 ft 186 kts 201°
2026-05-05 09:11 34.52927 135.36152 2489 ft 185 kts 201°
2026-05-05 09:11 34.51733 135.35585 2234 ft 183 kts 201°
2026-05-05 09:12 34.50556 135.35026 1977 ft 180 kts 200°
2026-05-05 09:12 34.49480 135.34310 1781 ft 171 kts 212°
2026-05-05 09:12 34.48647 135.33366 1576 ft 160 kts 234°
2026-05-05 09:12 34.48056 135.32282 1349 ft 148 kts 232°
2026-05-05 09:13 34.47437 135.31344 1166 ft 137 kts 229°
2026-05-05 09:13 34.46836 135.30503 990 ft 128 kts 229°
2026-05-05 09:13 34.46260 135.29683 812 ft 128 kts 229°
2026-05-05 09:13 34.45700 135.28858 666 ft 125 kts 231°
2026-05-05 09:14 34.45168 135.28035 556 ft 129 kts 232°
2026-05-05 09:14 34.44607 135.27199 363 ft 126 kts 229°
2026-05-05 09:14 34.44063 135.26391 199 ft 119 kts 232°
2026-05-05 09:14 34.43566 135.25650 48 ft 112 kts 230°
2026-05-05 09:15 34.43124 135.24987 34 ft 86 kts 231°
2026-05-05 09:15 34.42833 135.24552 32 ft 37 kts 232°
2026-05-05 09:15 34.42737 135.24335 31 ft 22 kts 252°
2026-05-05 09:15 34.42719 135.24176 31 ft 16 kts 275°
2026-05-05 09:16 34.42786 135.24076 29 ft 16 kts 324°
2026-05-05 09:16 34.42873 135.24010 29 ft 11 kts
2026-05-05 09:16 34.42925 135.24041 29 ft 9 kts 40°
2026-05-05 09:16 34.42973 135.24106 29 ft 12 kts 53°
2026-05-05 09:17 34.43000 135.24150 29 ft 4 kts 53°
2026-05-05 09:17 34.43005 135.24157 29 ft 0 kts 53°
2026-05-05 09:18 34.43014 135.24163 29 ft 4 kts 29°
2026-05-05 09:18 34.43035 135.24155 29 ft 6 kts 323°
2026-05-05 09:18 34.43068 135.24123 29 ft 2 kts 322°
2026-05-05 09:18 34.43078 135.24114 29 ft 0 kts 322°
2026-05-05 09:19 34.43080 135.24112 29 ft 1 kts 322°
2026-05-05 09:19 34.43086 135.24106 29 ft 1 kts 322°
2026-05-05 09:19 34.43089 135.24104 29 ft 0 kts 322°
2026-05-05 09:20 34.43100 135.24093 30 ft 0 kts 323°